Regional Weather Roundup
Issued by NWS

Home | Current Version | Previous Version | Text Only | Print | Product List | Glossary On
Versions: 1 2 3 4 5 6 7 8 9 10 11 12 13 14 15 16 17 18 19 20 21 22 23 24 25 26 27 28 29 30 31 32 33 34 35 36 37 38 39 40 41 42 43 44 45 46 47 48 49 50
000
ASCA44 KEWX 230220
RWRMX

LATIN AMERICA AND CARIBBEAN REGIONAL WEATHER ROUNDUP
NATIONAL WEATHER SERVICE AUSTIN/SAN ANTONIO TX
900 PM CDT FRI SEP 22 2017

NOTE: "FAIR" INDICATED FEW OR NO CLOUDS BELOW 12,000 FEET WITH NO
SIGNIFICANT WEATHER AND/OR OBSTRUCTIONS TO VISIBILITY.

BAJA CALIFORNIA

CITY           SKY/WX    TMP DP  RH WIND       PRES   REMARKS
LORETO           N/A    N/A N/A N/A MISG        N/A
LA PAZ         PTCLDY    84  68  58 SW9       29.72S
MEXICALI       CLEAR     79  28  15 N6        29.67F
S.J. DEL CABO  PTCLDY    84  70  61 E5        29.72S
TIJUANA        MOCLDY    66  55  68 W10       29.84F

NORTHWESTERN MEXICO

CITY           SKY/WX    TMP DP  RH WIND       PRES   REMARKS
CULIACAN       MOCLDY    81  77  89 N6        29.72R
DURANGO        MOCLDY    70  59  68 NW5       30.04R
GUAYMAS        CLEAR     86  72  62 CALM      29.61S HX  92
HERMOSILLO     CLEAR     86  57  37 W8        29.70S
CD. JUAREZ     PTCLDY    86  43  22 S5        29.81S
LOS MOCHIS     CLEAR     86  70  58 W12       29.70R HX  90
OBREGON        CLEAR     86  63  45 W5        29.64S

NORTHEASTERN MEXICO

CITY           SKY/WX    TMP DP  RH WIND       PRES   REMARKS
CHIHUAHUA      MOCLDY    77  52  41 E8        29.88R
MATAMOROS        N/A    N/A N/A N/A MISG        N/A
MONCLOVA         N/A    N/A N/A N/A MISG        N/A
MONTERREY      MOCLDY    81  66  61 E6        29.82R
NUEVO LAREDO     N/A    N/A N/A N/A MISG        N/A
PIEDRAS NEGRAS   N/A    N/A N/A N/A MISG        N/A
REYNOSA        PTCLDY    81  68  65 SE14      29.83R
SALTILLO       PTCLDY    72  57  60 N12       30.05R
TORREON        PTCLDY    88  61  40 NE9       29.84R
CD. VICTORIA   PTCLDY    82  72  69 MISG      29.82R

WESTERN MEXICO

CITY           SKY/WX    TMP DP  RH WIND       PRES   REMARKS
AGUASCALIENTES RAIN      64  61  88 SE8       30.11R
COLIMA         CLOUDY    70  70 100 CALM      29.90R FOG
DEL BAJIO      RAIN      61  59  94 N8        30.16R
GUADALAJARA    CLOUDY    70  66  88 CALM      30.00R
MANZANILLO     RAIN      81  77  89 NE6       29.73R
MAZATLAN       MOCLDY    79  75  89 CALM      29.68F
P. VALLARTA    CLOUDY    81  81 100 SE3       29.72R HX  91
URUAPAN        LGT RAIN  64  63  94 CALM      30.04R FOG
ZACATECAS      MOCLDY    63  54  72 CALM      30.13R

CENTRAL MEXICO

CITY           SKY/WX    TMP DP  RH WIND       PRES   REMARKS
CUERNAVACA       N/A    N/A N/A N/A MISG        N/A
MEXICO CITY    MOCLDY    70  50  49 SW12      30.17R
MORELIA        MOCLDY    64  61  88 CALM      30.09R
POZA RICA        N/A    N/A N/A N/A MISG        N/A
PUEBLA         MOCLDY    63  54  72 S7        30.19R
QUERETARO      LGT RAIN  57  57 100 SW6       30.21R
S. LUIS POTOSI PTCLDY    66  55  68 SE8       30.12R
TAMPICO        CLEAR     81  75  83 E5        29.80S
TOLUCA         MOCLDY    59  52  77 SE10      30.23R

SOUTHERN MEXICO

CITY           SKY/WX    TMP DP  RH WIND       PRES   REMARKS
ACAPULCO       LGT RAIN  82  77  83 W7        29.75S HX  91
B. DE HUATULCO   N/A    N/A N/A N/A MISG        N/A
OAXACA           N/A    N/A N/A N/A MISG        N/A
P. ESCONDIDO   CLOUDY    79  73  83 N6        29.88F
VERACRUZ       PTCLDY    82  77  83 E3        29.79R HX  91
ZIHUATANEJO    MOCLDY    81  75  83 E3        29.77R

YUCATAN PENINSULA

CITY           SKY/WX    TMP DP  RH WIND       PRES   REMARKS
CAMPECHE       PTCLDY    81  77  89 N8        29.78R
CANCUN         MOCLDY    82  77  83 NW3       29.85R HX  91
CHETUMAL         N/A    N/A N/A N/A MISG        N/A
CD. DEL CARMEN CLEAR    N/A N/A N/A N12       29.80R
COZUMEL        MOCLDY    82  77  83 CALM      29.82R HX  91
MERIDA         MOCLDY    82  75  78 NE8       29.84R
MINATITLAN     PTCLDY    84  79  84 CALM      29.75S HX  96
TAPACHULA      MOCLDY    77  75  94 E5        29.79R
TUX. GUTIERREZ MOCLDY    73  73 100 SW3       29.83R
VILLAHERMOSA   PTCLDY    79  79 100 CALM      29.78R

CENTRAL AMERICA

CITY           SKY/WX    TMP DP  RH WIND       PRES   REMARKS
MANAGUA        PTCLDY    77  75  94 S5        29.77S FOG

CARIBBEAN

CITY           SKY/WX    TMP DP  RH WIND       PRES   REMARKS
ARUBA          PTCLDY    86  81  84 E9        29.80R HX 102
CURACAO          N/A     86  79  79 E9        29.80S HX  99
KINGSTON       PTCLDY    86  77  74 W5        29.77S HX  97
NASSAU         PTCLDY    86  75  70 N5        29.83S HX  95
SAN JUAN       PTCLDY    82  81  94 SE7       29.86F HX  95
SANTO DOMINGO  PTCLDY    81  77  89 SW7       29.80R THUNDER

$$





USA.gov is the U.S. government's official web portal to all federal, state and local government web resources and services.